SCP
0 0 0 0 0 0 0 0 0 0 0 0 0 0 0 0 0 0 0 0 0 0 0 0 0 0 0 0 0 0 0 0 0 0 0 0 0 0
0 0 0 0 0 0 0 0 0 0 0 0 0 0 0 0 0 0 0 0 0 0 0 0 0 0 0 0 0 0 0 0 0 0 0 0 0 0
0 0 0 0 0 0 0 0 0 0 0 0 0 0 0 0 0 0 0 0 0 0 0 0 0 0 0 0 0 0 0 0 0 0 0 0 0 0
0 0 0 0 0 0 0 0 0 0 0 0 0 0 0 0 0 0 0 0 0 0 0 0 0 0 0 0 0 0 0 0 0 0 0 0 0 0
0 0 0 0 0 0 0 0 0 0 0 0 0 0 0 0 0 0 0 0 0 0 0 0 0 0 0 0 0 0 0 0 0 0 0 0 0 0
0 0 0 0 0 0 0 0 0 0 0 0 0 0 0 0 0 0 0 0 0 0 0 0 0 0 0 0 0 0 0 0 0 0 0 0 0 0
0 0 0 0 0 0 0 0 0 0 0 0 0 0 0 0 0 0 0 0 0 0 0 0 0 0 0 0 0 0 0 0 0 0 0 0 0 0
0 0 0 0 0 0 0 0 0 0 0 0 0 0 0 0 0 0 0 0 0 0 0 0 0 0 0 0 0 0 0 0 0 0 0 0 0 0
0 0 0 0 0 0 0 0 0 0 0 0 0 0 0 0 0 0 0 0 0 0 0 0 0 0 0 0 0 0 0 0 0 0 0 0 0 0
0 0 0 0 0 0 0 0 0 0 0 0 0 0 0 0 0 0 0 0 0 0 0 0 0 0 0 0 0 0 0 0 0 0 0 0 0 0
0 0 0 0 0 0 0 0 0 0 0 0 0 0 0 0 0 0 0 0 0 0 0 0 0 0 0 0 0 0 0 0 0 0 0 0 0 0
0 0 0 0 0 0 0 0 0 0 0 0 0 0 0 0 0 0 0 0 0 0 0 0 0 0 0 0 0 0 0 0 0 0 0 0 0 0
0 0 0 0 0 0 0 0 0 0 0 0 0 0 0 0 0 0 0 0 0 0 0 0 0 0 0 0 0 0 0 0 0 0 0 0 0 0
0 0 0 0 0 0 0 0 0 0 0 0 0 0 0 0 0 0 0 0 0 0 0 0 0 0 0 0 0 0 0 0 0 0 0 0 0 0
0 0 0 0 0 0 0 0 0 0 0 0 0 0 0 0 0 0 0 0 0 0 0 0 0 0 0 0 0 0 0 0 0 0 0 0 0 0
0 0 0 0 0 0 0 0 0 0 0 0 0 0 0 0 0 0 0 0 0 0 0 0 0 0 0 0 0 0 0 0 0 0 0 0 0 0
0 0 0 0 0 0 0 0 0 0 0 0 0 0 0 0 0 0 0 0 0 0 0 0 0 0 0 0 0 0 0 0 0 0 0 0 0 0
0 0 0 0 0 0 0 0 0 0 0 0 0 0 0 0 0 0 0 0 0 0 0 0 0 0 0 0 0 0 0 0 0 0 0 0 0 0
0 0 0 0 0 0 0 0 0 0 0 0 0 0 0 0 0 0 0 0 0 0 0 0 0 0 0 0 0 0 0 0 0 0 0 0 0 0
0 0 0 0 0 0 0 0 0 0 0 0 0 0 0 0 0 0 0 0 0 0 0 0 0 0 0 0 0 0 0 0 0 0 0 0 0 0
0 0 0 0 0 0 0 0 0 0 0 0 0 0 0 0 0 0 0 0 0 0 0 0 0 0 0 0 0 0 0 0 0 0 0 0 0 0
0 0 0 0 0 0 0 0 0 0 0 0 0 0 0 0 0 0 0 0 0 0 0 0 0 0 0 0 0 0 0 0 0 0 0 0 0 0
0 0 0 0 0 0 0 0 0 0 0 0 0 0 0 0 0 0 0 0 0 0 0 0 0 0 0 0 0 0 0 0 0 0 0 0 0 0
Wind_Speed
2 2 1 1 1 1 1 2 2 1 2 2 1 1 1 1 2 2 2 6 8 9 9 9 9 10 10 10 10 11 10 10 10 11 11 11 11 11
2 3 2 1 1 1 1 1 1 2 2 1 1 1 1 1 3 2 3 7 8 9 10 10 10 11 11 11 11 11 11 11 11 11 11 11 12 11
2 3 3 2 2 1 1 1 1 1 2 2 1 1 1 1 2 2 3 3 4 9 10 11 11 12 12 12 12 11 11 11 11 11 12 12 12 11
4 3 3 3 3 2 2 2 2 2 2 3 2 1 2 2 2 3 3 3 3 7 10 11 12 12 12 12 12 12 12 11 11 11 11 11 11 11
4 5 4 4 4 3 3 3 2 2 2 2 3 2 2 2 2 3 4 3 4 6 8 10 11 12 13 13 12 12 11 11 11 11 11 11 11 12
4 4 4 5 5 5 4 4 3 2 2 2 3 2 2 2 1 2 3 3 4 4 6 7 9 11 12 13 12 11 10 11 11 11 11 11 11 12
4 4 4 5 6 5 4 4 3 3 2 3 3 2 3 2 2 2 3 3 4 3 3 4 4 4 6 9 10 10 11 11 11 12 12 12 12 12
4 4 4 5 6 8 7 7 6 5 4 4 3 4 4 3 2 2 2 2 4 2 2 4 3 4 4 4 8 11 11 11 12 12 12 12 12 12
4 4 4 4 6 4 6 7 7 8 8 5 5 6 4 4 3 3 3 3 5 3 2 5 3 5 4 6 11 11 11 11 11 12 12 12 11 11
5 5 5 4 5 5 5 4 5 5 6 5 5 5 4 3 3 3 4 4 4 3 2 4 4 4 5 4 9 10 10 11 12 12 12 12 11 11
5 5 5 5 8 8 5 5 5 5 7 8 7 6 6 6 4 1 2 3 5 4 2 3 3 4 4 4 6 8 9 11 12 12 12 12 11 10
4 4 7 7 8 9 6 5 6 5 4 3 4 5 4 5 7 4 3 3 4 4 2 2 2 3 4 3 2 3 5 9 11 12 11 11 11 5
4 3 4 8 9 9 7 5 7 5 3 3 3 3 3 3 3 3 4 4 4 5 2 1 2 2 4 5 3 3 3 3 4 5 8 10 11 7
4 3 4 7 8 9 7 7 8 5 2 2 3 3 3 3 3 3 4 4 5 6 5 3 3 3 4 5 5 3 3 3 3 3 3 7 9 10
3 5 6 7 7 6 7 8 6 3 2 3 4 4 3 3 2 2 3 3 4 5 4 4 5 4 4 5 5 4 4 3 3 3 3 3 3 3
3 4 6 6 5 5 5 5 3 4 3 4 3 2 2 1 2 2 2 2 3 4 4 5 5 5 5 6 6 6 4 3 3 3 3 3 3 3
2 1 1 2 2 2 2 3 3 3 3 2 2 2 2 2 2 2 2 3 4 4 4 3 4 5 6 6 6 6 5 4 4 3 3 4 4 3
3 3 3 3 4 4 4 3 3 3 3 3 3 3 3 3 3 3 3 3 5 5 4 3 3 3 3 4 7 6 5 4 3 3 3 4 5 3
4 3 4 4 4 4 3 3 3 3 3 3 3 3 3 3 3 3 4 4 4 5 4 3 3 3 4 5 4 5 4 4 3 3 3 3 4 4
3 4 4 4 3 4 4 3 3 3 3 3 3 3 3 3 4 4 4 4 4 4 4 3 3 4 5 5 4 3 5 4 3 3 3 3 3 5
3 4 4 4 4 4 4 4 4 4 4 3 3 4 4 4 4 4 4 6 5 4 5 4 4 5 3 2 3 3 3 4 4 3 2 2 3 3
4 4 4 4 4 4 4 3 3 4 4 4 4 4 4 4 4 5 4 4 4 5 5 4 3 2 2 3 4 4 3 3 3 5 5 4 2 2
3 3 3 3 3 3 3 4 4 4 3 3 3 3 4 4 4 4 4 4 4 4 4 3 2 2 3 3 3 3 3 3 2 2 3 5 7 9
Wind_Direction
153 147 138 133 115 104 107 134 155 211 257 232 220 203 167 186 235 246 263 279 289 290 289 293 297 298 298 298 299 300 301 302 302 302 303 303 302 302
154 151 153 148 138 129 140 144 147 174 238 247 216 222 225 256 257 262 263 281 284 286 286 288 289 290 292 293 294 295 296 297 296 296 297 299 298 299
166 167 176 164 156 166 164 165 180 170 230 273 267 236 229 260 283 277 271 267 273 283 287 290 289 289 288 288 288 290 292 292 292 293 294 295 298 299
183 178 185 175 179 181 175 192 208 207 205 255 278 261 249 254 271 279 281 275 269 283 286 289 290 289 287 286 285 285 287 287 288 291 292 294 295 297
190 191 192 183 197 195 191 199 208 216 206 231 266 268 269 273 284 286 282 284 286 286 287 290 291 291 289 286 285 285 285 284 285 289 291 292 294 296
198 197 198 197 200 197 201 207 203 207 210 224 250 263 266 267 261 278 289 283 284 287 285 290 292 295 291 289 287 286 284 283 284 287 290 290 292 293
205 206 209 207 204 202 204 202 197 203 213 224 242 258 260 270 260 254 270 286 285 270 285 289 289 284 286 288 288 284 282 282 282 284 287 289 290 290
211 214 214 212 216 222 224 218 208 206 211 218 234 241 251 250 253 264 275 299 293 288 300 291 282 278 276 269 284 288 284 283 283 284 284 286 287 287
211 211 215 214 214 214 228 234 236 237 229 218 226 238 242 237 235 257 258 260 263 273 293 285 276 274 274 282 287 287 286 284 285 286 285 284 284 285
216 212 214 215 210 205 210 221 232 240 239 233 227 234 236 228 218 233 248 267 273 268 245 271 279 276 284 278 280 281 290 292 288 287 286 285 284 285
224 217 213 215 221 215 210 219 235 248 250 242 241 245 248 256 254 248 262 276 283 276 243 251 281 293 286 274 271 279 291 293 290 288 285 288 287 287
228 224 222 222 227 221 213 212 229 239 236 246 247 253 252 252 253 232 217 241 269 277 246 248 282 310 303 284 273 286 290 292 293 291 288 290 292 289
223 224 227 230 232 229 224 218 232 241 228 225 236 243 245 240 239 232 218 220 240 254 248 253 273 271 268 290 294 277 269 282 292 289 291 293 291 289
223 221 224 232 236 237 235 238 244 246 220 222 235 239 239 240 238 235 232 233 235 247 249 235 245 256 271 280 284 290 287 277 272 275 276 292 290 290
226 229 234 239 243 240 237 240 237 218 211 230 237 240 233 233 234 242 246 249 258 256 251 238 240 247 250 263 276 281 293 288 270 272 281 284 279 283
236 235 240 240 238 236 237 232 216 206 214 229 239 240 235 233 241 239 254 262 271 274 254 243 240 241 254 259 265 272 267 274 289 283 281 282 278 268
227 215 219 224 221 223 222 220 209 206 222 222 228 240 243 243 249 241 245 249 258 273 280 269 251 247 248 254 263 261 264 264 265 277 285 284 274 267
236 219 223 222 224 223 221 219 215 215 217 219 224 231 240 246 253 251 247 248 259 265 268 270 275 279 273 260 237 253 258 259 267 271 268 276 284 279
236 225 227 226 227 223 221 223 225 221 218 223 230 233 236 241 246 253 250 250 256 262 262 258 255 254 270 279 271 224 242 261 265 265 256 257 273 282
228 229 231 228 228 226 225 229 231 223 220 225 229 231 232 240 247 252 251 251 258 265 266 255 245 242 249 262 272 266 243 242 251 264 269 270 270 277
234 231 226 225 227 224 221 222 226 228 225 222 227 231 234 240 249 251 252 259 263 262 263 262 254 255 246 245 266 275 268 249 249 249 258 281 293 293
238 238 234 228 225 221 218 219 226 228 224 227 231 233 234 236 247 251 251 256 258 258 262 266 263 258 235 243 262 274 286 295 286 286 271 242 235 255
243 243 239 229 222 221 220 221 225 229 225 229 234 237 235 239 244 248 252 255 259 260 260 265 263 247 243 242 254 267 278 289 298 310 296 283 273 270